Tracking 30995 objects as of 6-Jul-2025
HD Live streaming from Space Station
objects crossing your sky now

DMSP 5D-2 F13 DEB

Track DMSP 5D-2 F13 DEB now!
10-day predictions


NORAD ID: 40398
Int'l Code: 1995-015K
Perigee: 836.3 km
Apogee: 847.3 km
Inclination: 98.8 °
Period: 101.6 minutes
Semi major axis: 7212 km
RCS: Unknown
Launch date: March 24, 1995
Source: United States (US)
Launch site: AIR FORCE WESTERN TEST RANGE (AFWTR)

Note: This is SATELLITE DEBRIS
Your satellite tracking list
Your tracking list is empty




NASA's NSSDC Master Catalog

Two Line Element Set (TLE):
1 40398U 95015K   25186.52218529  .00000146  00000-0  94086-4 0  9992
2 40398  98.8078 199.0237 0007615  59.8937 300.2991 14.17255534535438
Source of the keplerian elements: AFSPC